User: anonymous   Login
Location: Eckley
(40.9930°N, 75.8630°W)
Time: 07:51:20
(UTC-04:00)
Language:

Cosmos 2221 Rocket - Orbit

View from above orbital plane
View from above orbital plane
View from above satellite
View from above satellite

Ground track
Ground track

The orbit data is extracted from the following two-line orbital elements,

1 22237U 92080B   15146.84361602  .00000206  00000-0  25172-4 0  9991
2 22237 082.5121 097.5011 0020732 141.8186 275.6082 14.78137500212295
Epoch (UTC): 26 May 2015 20:14:48
Eccentricity: 0.0020732
inclination: 82.5121°
perigee height: 620 km
apogee height: 650 km
right ascension of ascending node: 97.5011°
argument of perigee: 141.8186°
revolutions per day: 14.78137500
mean anomaly at epoch: 275.6082°
orbit number at epoch: 21229

The dashed part of the orbit path shows where the satellite is in the earth's shadow,  

DLR